TimeCST,TemperatureF,Dew PointF,Humidity,Sea Level PressureIn,VisibilityMPH,Wind Direction,Wind SpeedMPH,Gust SpeedMPH,PrecipitationIn,Events,Conditions,WindDirDegrees,DateUTC
12:53 AM,39.0,30.0,70,30.15,10.0,NW,10.4,-,N/A,,Clear,320,2012-12-04 06:53:00
1:53 AM,37.0,27.0,67,30.17,10.0,NNW,6.9,-,N/A,,Clear,340,2012-12-04 07:53:00
2:53 AM,34.0,24.1,67,30.19,10.0,WNW,6.9,-,N/A,,Clear,290,2012-12-04 08:53:00
3:53 AM,34.0,23.0,64,30.21,10.0,WNW,6.9,-,N/A,,Clear,300,2012-12-04 09:53:00
4:53 AM,30.9,23.0,72,30.23,10.0,North,5.8,-,N/A,,Clear,350,2012-12-04 10:53:00
5:53 AM,28.0,21.0,75,30.27,10.0,SSW,3.5,-,N/A,,Clear,200,2012-12-04 11:53:00
6:53 AM,30.0,21.9,72,30.30,10.0,SW,3.5,-,N/A,,Clear,220,2012-12-04 12:53:00
7:53 AM,28.0,21.0,75,30.33,10.0,NW,8.1,-,N/A,,Clear,320,2012-12-04 13:53:00
8:53 AM,37.0,23.0,57,30.34,10.0,NW,3.5,-,N/A,,Clear,310,2012-12-04 14:53:00
9:53 AM,45.0,25.0,46,30.34,10.0,NW,4.6,-,N/A,,Clear,310,2012-12-04 15:53:00
10:53 AM,53.1,27.0,37,30.33,10.0,Calm,Calm,-,N/A,,Clear,0,2012-12-04 16:53:00
11:53 AM,57.2,28.4,33,30.31,10.0,North,4.6,-,N/A,,Clear,350,2012-12-04 17:53:00
12:53 PM,59.0,25.0,27,30.30,10.0,NW,5.8,-,N/A,,Clear,320,2012-12-04 18:53:00
1:53 PM,62.1,19.9,20,30.29,10.0,West,9.2,-,N/A,,Clear,270,2012-12-04 19:53:00
2:53 PM,62.1,21.0,21,30.28,10.0,WNW,8.1,-,N/A,,Clear,290,2012-12-04 20:53:00
3:53 PM,62.1,21.0,21,30.27,10.0,WNW,6.9,-,N/A,,Clear,290,2012-12-04 21:53:00
4:53 PM,55.9,27.0,33,30.29,10.0,Calm,Calm,-,N/A,,Clear,0,2012-12-04 22:53:00
5:53 PM,46.0,24.1,42,30.30,9.0,Calm,Calm,-,N/A,,Clear,0,2012-12-04 23:53:00
6:53 PM,39.9,23.0,51,30.30,10.0,Calm,Calm,-,N/A,,Clear,0,2012-12-05 00:53:00
7:53 PM,42.1,23.0,47,30.31,10.0,SW,8.1,-,N/A,,Clear,230,2012-12-05 01:53:00
8:53 PM,36.0,21.0,55,30.31,10.0,SSW,4.6,-,N/A,,Clear,200,2012-12-05 02:53:00
9:53 PM,36.0,21.0,55,30.31,10.0,South,3.5,-,N/A,,Clear,170,2012-12-05 03:53:00
10:53 PM,36.0,21.0,55,30.31,10.0,Calm,Calm,-,N/A,,Clear,0,2012-12-05 04:53:00
11:53 PM,33.1,21.9,64,30.31,10.0,SE,4.6,-,N/A,,Clear,140,2012-12-05 05:53:00